[[{"header":{"parameterUnit":"m.s-1","parameterCategory":1,"la1":30.2991,"la2":30.254,"lo1":-89.0895,"lo2":-89.0444,"dy":0.0017,"dx":0.0017,"nx":28,"ny":28,"refTime":"2025-11-27T03:00:00:Z","depth":0,"parameterNumber":2,"parameterNumberName":"U-component_of_WINDS"},"data":[0,0,0,0,0,0,0,0,0,0,0,0,0,0,0,0,0,0,0,0,0,0,0,0,0,0,0,0,0,0,0,0,0,0,0,0,0,0,0,0,0,0,0,0,0,0,0,0,0,0,0,0,0,0,0,0,0,0,-1.025,-1.025,0,-1.0295,-1.0296,-1.0296,-1.0234,-1.0232,-1.023,-1.0228,-1.0276,-1.028,-1.0283,0,0,0,0,0,0,0,0,0,0,0,0,0,-1.011,-1.0113,-1.025,-1.025,-1.0251,-1.0295,-1.0296,-1.0297,-1.0235,-1.0232,-1.0229,-1.0227,-1.0275,-1.0279,-1.0283,0,0,0,0,0,0,0,0,0,0,0,0,0,-1.0165,-1.0114,-1.025,-1.0225,-1.0224,-1.0295,-1.0296,-1.0297,-1.0235,-1.0232,-1.0228,-1.0225,-1.0274,-1.0279,-1.0284,-1.0382,0,0,-1.0299,-1.0301,0,0,0,0,0,0,0,0,-1.0162,-1.017,-1.0228,-1.0227,-1.0225,-1.0256,-1.0264,-1.0325,-1.0236,-1.0231,-1.0227,-1.0224,-1.0272,-1.0277,-1.0293,-1.0384,-1.0387,-1.03,-1.0303,-1.0305,-1.0306,0,0,0,0,0,0,0,-1.0158,-1.0168,-1.0268,-1.0229,-1.0227,-1.0212,-1.0216,-1.0276,-1.027,-1.0231,-1.0227,-1.0233,-1.0271,-1.0288,-1.0294,-1.0387,-1.03,-1.0304,-1.0307,-1.0309,-1.0562,-1.0565,0,0,0,0,0,0,-1.0157,-1.0165,-1.0266,-1.0269,-1.0185,-1.0218,-1.0222,-1.0249,-1.0269,-1.0269,-1.0236,-1.023,-1.0281,-1.0288,-1.0295,-1.0413,-1.0305,-1.031,-1.0313,-1.0558,-1.0562,-1.0566,0,0,0,0,0,0,-1.0154,-1.0167,-1.0265,-1.0216,-1.0227,-1.0224,-1.0255,-1.0252,-1.027,-1.0272,-1.0271,-1.0255,-1.0279,-1.0288,-1.0361,-1.0414,-1.0312,-1.0317,-1.0554,-1.0559,-1.0564,-1.0648,0,0,0,0,0,0,-1.0151,-1.0166,-1.0203,-1.0217,-1.023,-1.033,-1.0258,-1.0255,-1.0278,-1.0271,-1.029,-1.029,-1.0277,-1.0354,-1.0366,-1.0419,-1.0321,-1.0549,-1.0556,-1.0563,-1.0641,-1.0656,-1.0669,0,0,0,0,0,-1.0146,-1.0226,-1.0206,-1.0218,-1.0277,-1.0333,-1.034,-1.0323,-1.0283,-1.0321,-1.0322,-1.0289,-1.0405,-1.0362,-1.0375,-1.043,-1.0546,-1.0554,-1.0562,-1.0635,-1.0653,-1.0668,0,0,0,0,0,0,-1.0219,-1.0227,-1.0205,-1.0292,-1.0312,-1.0322,-1.0369,-1.0343,-1.0376,-1.0368,-1.0346,-1.035,-1.0429,-1.0436,-1.0387,-1.0526,-1.0469,-1.048,-1.0519,-1.0537,-1.0551,-1.0548,-1.0325,0,0,0,0,0,-1.0245,-1.029,-1.0294,-1.037,-1.0381,-1.0374,-1.0397,-1.0382,-1.0403,-1.0411,-1.0418,-1.044,-1.0481,-1.0509,-1.0547,-1.064,-1.0644,-1.0685,-1.0699,-1.071,-1.0721,-1.0772,-1.079,-1.0593,-1.0593,-1.0593,0,0,-1.03,-1.031,-1.0339,-1.0385,-1.0399,-1.0446,-1.0381,-1.0434,-1.0469,-1.0419,-1.0489,-1.0494,-1.0517,-1.0601,-1.0638,-1.061,-1.0776,-1.0721,-1.073,-1.0735,-1.0782,-1.0801,-1.0818,-1.0599,-1.0598,-1.0597,0,0,-1.0425,-1.0436,-1.0501,-1.0515,-1.0537,-1.0531,-1.0546,-1.056,-1.0562,-1.0631,-1.0595,-1.0636,-1.0707,-1.0725,-1.0743,-1.0872,-1.0844,-1.0885,-1.096,-1.1009,-1.1025,-1.1039,-1.1086,-1.1104,-1.0895,-1.0895,-1.0896,0,-1.0491,-1.056,-1.0537,-1.0593,-1.0614,-1.057,-1.0636,-1.0651,-1.0685,-1.0701,-1.0667,-1.0756,-1.0767,-1.0855,-1.0887,-1.0902,-1.092,-1.0884,-1.1024,-1.1038,-1.105,-1.1096,-1.1114,-1.09,-1.09,-1.0899,-1.0899,0,-1.064,-1.0689,-1.0739,-1.0771,-1.0798,-1.0858,-1.0845,-1.0875,-1.0857,-1.0854,-1.0925,-1.0937,-1.0977,-1.0996,-1.0979,-1.1082,-1.1064,-1.1028,-1.097,-1.1075,-1.1117,-1.1134,-1.0908,-1.0906,-1.0904,-1.0903,0,0,-1.0816,-1.0834,-1.0853,-1.0867,-1.0886,-1.0924,-1.0981,-1.102,-1.1046,-1.107,-1.1119,-1.1179,-1.1146,-1.1166,-1.115,-1.1194,-1.1297,-1.1153,-1.1153,-1.1181,-1.1412,-1.1441,-1.1462,-1.1277,-1.128,-1.1283,-1.1411,0,-1.0942,-1.1042,-1.1023,-1.1121,-1.1166,-1.1123,-1.1174,-1.1191,-1.119,-1.1228,-1.1226,-1.127,-1.1222,-1.1234,-1.1275,-1.1276,-1.1344,-1.1266,-1.1324,-1.1326,-1.1323,-1.1484,-1.1515,-1.1636,-1.1427,-1.143,-1.1432,0,-1.1103,-1.1132,-1.1235,-1.1247,-1.1265,-1.1311,-1.1344,-1.1381,-1.1399,-1.1395,-1.1418,-1.1393,-1.1451,-1.139,-1.147,-1.1418,-1.144,-1.1444,-1.1448,-1.1455,-1.1388,-1.1498,-1.1673,-1.1693,-1.1458,-1.1456,-1.1454,0,-1.1224,-1.1288,-1.1358,-1.1371,-1.1386,-1.142,-1.1428,-1.1443,-1.1467,-1.1495,-1.1511,-1.1546,-1.1566,-1.1594,-1.158,-1.1536,-1.1663,-1.16,-1.1663,-1.1663,-1.1694,-1.1693,-1.1879,-1.1704,-1.1703,-1.1703,-1.1703,0,-1.1368,-1.1433,-1.1412,-1.1456,-1.1527,-1.1504,-1.1575,-1.1578,-1.1591,-1.1635,-1.1599,-1.164,-1.1618,-1.1658,-1.1646,-1.1715,-1.1724,-1.1723,-1.172,-1.1728,-1.1729,-1.1744,-1.1737,-1.1708,-1.1707,-1.1706,-1.1705,0,-1.1516,-1.1504,-1.1578,-1.1586,-1.1589,-1.1642,-1.1648,-1.1689,-1.1683,-1.1739,-1.1751,-1.1743,-1.1788,-1.1775,-1.1824,-1.1816,-1.1904,-1.1889,-1.1898,-1.1896,-1.1959,-1.1954,-1.2164,-1.2191,-1.1996,-1.1998,-1.2,0,-1.1611,-1.166,-1.1672,-1.1699,-1.1709,-1.1752,-1.1776,-1.1753,-1.178,-1.1804,-1.1842,-1.1883,-1.1916,-1.1989,-1.1989,-1.2026,-1.2013,-1.2083,-1.2018,-1.2025,-1.2016,-1.2015,-1.202,-1.2098,-1.21,-1.2102,-1.2103,0,-1.1781,-1.1772,-1.1808,-1.1842,-1.1871,-1.1897,-1.1919,-1.1943,-1.1922,-1.1954,-1.1999,-1.2024,-1.2073,-1.2115,-1.2148,-1.2156,-1.2127,-1.2123,-1.214,-1.215,-1.2154,-1.2155,-1.1937,-1.2119,-1.2117,-1.2116,-1.2115,-1.2115,-1.1907,-1.1949,-1.1964,-1.2005,-1.2019,-1.204,-1.2079,-1.2078,-1.2115,-1.2153,-1.2137,-1.2189,-1.2206,-1.2247,-1.226,-1.23,-1.2274,-1.2297,-1.2304,-1.2311,-1.232,-1.2145,-1.2306,-1.2305,-1.2305,-1.2305,-1.2304,0,-1.2077,-1.2084,-1.2122,-1.2154,-1.2186,-1.2153,-1.2176,-1.2206,-1.2252,-1.2269,-1.2301,-1.2353,-1.2393,-1.2394,-1.2431,-1.2464,-1.2451,-1.2475,-1.2474,-1.2476,-1.2341,-1.2324,-1.2484,-1.2484,-1.2484,-1.2484,-1.2484,-1.2484,-1.217,-1.2239,-1.2232,-1.2308,-1.2314,-1.2365,-1.238,-1.24,-1.2414,-1.2473,-1.2506,-1.2506,-1.2517,-1.2554,-1.259,-1.2589,-1.2606,-1.2635,-1.2629,-1.2503,-1.2486,-1.2469,-1.2453,-1.2638,-1.2638,-1.2761,-1.2763,-1.2764]},{"header":{"parameterUnit":"m.s-1","parameterCategory":1,"la1":30.2991,"la2":30.254,"lo1":-89.0895,"lo2":-89.0444,"dy":0.0017,"dx":0.0017,"nx":28,"ny":28,"refTime":"2025-11-27T03:00:00:Z","depth":0,"parameterNumber":3,"parameterNumberName":"V-component_of_WINDS"},"data":[0,0,0,0,0,0,0,0,0,0,0,0,0,0,0,0,0,0,0,0,0,0,0,0,0,0,0,0,0,0,0,0,0,0,0,0,0,0,0,0,0,0,0,0,0,0,0,0,0,0,0,0,0,0,0,0,0,0,-6.4783,-6.4785,0,-6.493,-6.4932,-6.4933,-6.4837,-6.4832,-6.4828,-6.4824,-6.4968,-6.4976,-6.4984,0,0,0,0,0,0,0,0,0,0,0,0,0,-6.4413,-6.442,-6.4783,-6.4785,-6.4787,-6.493,-6.4932,-6.4934,-6.4837,-6.4832,-6.4827,-6.4822,-6.4965,-6.4975,-6.4984,0,0,0,0,0,0,0,0,0,0,0,0,0,-6.4568,-6.4423,-6.4783,-6.4756,-6.4755,-6.4929,-6.4932,-6.4934,-6.4839,-6.4832,-6.4825,-6.4819,-6.4962,-6.4974,-6.4986,-6.5193,0,0,-6.5022,-6.5027,0,0,0,0,0,0,0,0,-6.456,-6.4582,-6.4758,-6.4758,-6.4757,-6.4858,-6.4854,-6.5021,-6.484,-6.4807,-6.4823,-6.4816,-6.4936,-6.495,-6.4992,-6.5199,-6.5205,-6.5023,-6.5031,-6.5036,-6.5039,0,0,0,0,0,0,0,-6.4549,-6.4575,-6.4841,-6.4761,-6.476,-6.4735,-6.4749,-6.4885,-6.4907,-6.4809,-6.4802,-6.4821,-6.4935,-6.4981,-6.4995,-6.5208,-6.5023,-6.5034,-6.5041,-6.5046,-6.5591,-6.5598,0,0,0,0,0,0,-6.4541,-6.4567,-6.4836,-6.4845,-6.464,-6.4747,-6.4763,-6.4833,-6.4905,-6.491,-6.4827,-6.4816,-6.4964,-6.4981,-6.4999,-6.5246,-6.5036,-6.5047,-6.5054,-6.5584,-6.5593,-6.5601,0,0,0,0,0,0,-6.4534,-6.4566,-6.483,-6.4704,-6.4736,-6.476,-6.4839,-6.4839,-6.4885,-6.4919,-6.4921,-6.487,-6.4959,-6.4983,-6.5146,-6.525,-6.5052,-6.5063,-6.5575,-6.5587,-6.5597,-6.5742,0,0,0,0,0,0,-6.4524,-6.4564,-6.4644,-6.4707,-6.4743,-6.4977,-6.4845,-6.4847,-6.4906,-6.4894,-6.496,-6.4965,-6.4956,-6.5128,-6.5158,-6.5263,-6.5072,-6.5566,-6.558,-6.5593,-6.5728,-6.5757,-6.5781,0,0,0,0,0,-6.4511,-6.4678,-6.4649,-6.4682,-6.4845,-6.4983,-6.5003,-6.4991,-6.4915,-6.4995,-6.5017,-6.4963,-6.5234,-6.5146,-6.5178,-6.5289,-6.5559,-6.5576,-6.5592,-6.5716,-6.5751,-6.5781,0,0,0,0,0,0,-6.4625,-6.4686,-6.4654,-6.4848,-6.4911,-6.4966,-6.5067,-6.5028,-6.5113,-6.5098,-6.5077,-6.5093,-6.5264,-6.5292,-6.5193,-6.5492,-6.5384,-6.5408,-6.5468,-6.5501,-6.5527,-6.5517,-6.5082,0,0,0,0,0,-6.4674,-6.4783,-6.4829,-6.4995,-6.5028,-6.5043,-6.5102,-6.5088,-6.5152,-6.5177,-6.5211,-6.5273,-6.5372,-6.5438,-6.5531,-6.5732,-6.5744,-6.5823,-6.585,-6.5872,-6.5892,-6.6,-6.6036,-6.5655,-6.5655,-6.5654,0,0,-6.4773,-6.482,-6.489,-6.5019,-6.5066,-6.5178,-6.5066,-6.5188,-6.5271,-6.5195,-6.5352,-6.5379,-6.5447,-6.563,-6.5712,-6.5658,-6.6,-6.5893,-6.591,-6.5919,-6.602,-6.6057,-6.6089,-6.5666,-6.5664,-6.5662,0,0,-6.5013,-6.5059,-6.5203,-6.5253,-6.5327,-6.5335,-6.537,-6.5432,-6.5447,-6.5604,-6.555,-6.5646,-6.5818,-6.5869,-6.5917,-6.6176,-6.6129,-6.6207,-6.6345,-6.6451,-6.6481,-6.6507,-6.6599,-6.6633,-6.6227,-6.6227,-6.6228,0,-6.5127,-6.5295,-6.5281,-6.5409,-6.5467,-6.5406,-6.555,-6.5598,-6.5698,-6.5739,-6.5678,-6.5893,-6.5934,-6.6128,-6.6191,-6.6233,-6.627,-6.6199,-6.6478,-6.6504,-6.6529,-6.6616,-6.6651,-6.6236,-6.6235,-6.6234,-6.6234,0,-6.5432,-6.555,-6.5656,-6.5757,-6.5827,-6.5962,-6.5966,-6.6038,-6.6018,-6.6032,-6.6192,-6.624,-6.6342,-6.6386,-6.6366,-6.6578,-6.6542,-6.6481,-6.6372,-6.6574,-6.6656,-6.669,-6.6249,-6.6246,-6.6243,-6.6241,0,0,-6.5748,-6.584,-6.5879,-6.5924,-6.6001,-6.609,-6.6222,-6.6324,-6.6386,-6.6456,-6.6566,-6.6712,-6.6656,-6.6711,-6.6696,-6.6788,-6.699,-6.6715,-6.6716,-6.6764,-6.7225,-6.7272,-6.7311,-6.6959,-6.6966,-6.6971,-6.7219,0,-6.5992,-6.6225,-6.6215,-6.6432,-6.654,-6.6483,-6.6597,-6.6656,-6.6673,-6.6765,-6.6782,-6.6887,-6.6804,-6.6837,-6.6926,-6.6947,-6.7082,-6.6929,-6.7059,-6.7064,-6.7045,-6.7354,-6.7403,-6.7636,-6.7251,-6.7257,-6.7261,0,-6.6308,-6.6392,-6.662,-6.6681,-6.6726,-6.6829,-6.6922,-6.7011,-6.7076,-6.7081,-6.7143,-6.7113,-6.7245,-6.7133,-6.7313,-6.7209,-6.7261,-6.728,-6.7288,-6.73,-6.7175,-6.7374,-6.7709,-6.7745,-6.7311,-6.7307,-6.7303,0,-6.6515,-6.6685,-6.6843,-6.6883,-6.6959,-6.7033,-6.7067,-6.7126,-6.7188,-6.7267,-6.7307,-6.74,-6.7452,-6.7524,-6.7519,-6.7438,-6.7702,-6.7589,-6.7709,-6.7709,-6.7767,-6.7764,-6.8116,-6.7801,-6.7801,-6.78,-6.7799,0,-6.6789,-6.693,-6.6938,-6.7035,-6.7192,-6.7179,-6.7334,-6.736,-6.7413,-6.7513,-6.7468,-6.7563,-6.7551,-6.7645,-6.7642,-6.7792,-6.7815,-6.7822,-6.7819,-6.7826,-6.7826,-6.7861,-6.7844,-6.7809,-6.7807,-6.7806,-6.7804,0,-6.7047,-6.7058,-6.7227,-6.7285,-6.7303,-6.7416,-6.7465,-6.7556,-6.7569,-6.7696,-6.7725,-6.7745,-6.7854,-6.7857,-6.7981,-6.7978,-6.8161,-6.814,-6.814,-6.8136,-6.8256,-6.8245,-6.8643,-6.8695,-6.8346,-6.835,-6.8353,0,-6.7221,-6.7329,-6.74,-6.7465,-6.7505,-6.761,-6.7673,-6.7664,-6.7731,-6.7813,-6.7895,-6.8,-6.8084,-6.826,-6.8284,-6.8379,-6.836,-6.8493,-6.8373,-6.8377,-6.8362,-6.8356,-6.8366,-6.8516,-6.852,-6.8523,-6.8526,0,-6.7529,-6.7529,-6.7623,-6.772,-6.7798,-6.7873,-6.7942,-6.7997,-6.7996,-6.8073,-6.8185,-6.8251,-6.8379,-6.8483,-6.8575,-6.8607,-6.8567,-6.8563,-6.8596,-6.8604,-6.86,-6.8604,-6.8204,-6.8554,-6.8551,-6.8549,-6.8548,-6.8547,-6.7751,-6.7844,-6.7909,-6.8015,-6.8067,-6.8133,-6.8222,-6.8247,-6.8341,-6.8446,-6.8434,-6.8559,-6.8619,-6.8739,-6.878,-6.8875,-6.8829,-6.8876,-6.8888,-6.89,-6.8913,-6.8585,-6.8892,-6.8891,-6.889,-6.889,-6.8889,0,-6.8056,-6.8095,-6.8193,-6.8293,-6.8376,-6.8332,-6.8407,-6.8479,-6.859,-6.8651,-6.8735,-6.8864,-6.8965,-6.8997,-6.9095,-6.9165,-6.9149,-6.9191,-6.9186,-6.9194,-6.8949,-6.8911,-6.9203,-6.9203,-6.9203,-6.9203,-6.9203,-6.9203,-6.8225,-6.8381,-6.8389,-6.8569,-6.8606,-6.873,-6.8776,-6.8836,-6.8885,-6.9032,-6.9117,-6.9138,-6.9187,-6.9288,-6.9379,-6.9385,-6.9423,-6.9473,-6.9472,-6.9243,-6.9211,-6.9181,-6.9146,-6.9482,-6.9482,-6.9709,-6.9711,-6.9713]}]]